Regional Weather Roundup
Issued by NWS

Home | Current Version | Previous Version | Text Only | Print | Product List | Glossary On
Versions: 1 2 3 4 5 6 7 8 9 10 11 12 13 14 15 16 17 18 19 20 21 22 23 24 25 26 27 28 29 30 31 32 33 34 35 36 37 38 39 40 41 42 43 44 45 46 47 48 49 50
000
ASUS46 KPQR 282010
RWROR

OREGON REGIONAL WEATHER ROUNDUP
NATIONAL WEATHER SERVICE PORTLAND OR
1200 PM PST WED JAN 28 2015

NOTE: "FAIR" INDICATES FEW OR NO CLOUDS BELOW 12,000 FEET WITH
NO SIGNIFICANT WEATHER AND/OR OBSTRUCTIONS TO VISIBILITY.

ORZ001>013-282100-
NORTHWEST OREGON


CITY           SKY/WX    TMP DP  RH WIND       PRES   REMARKS
ASTORIA        CLOUDY    53  48  83 NE7       30.34S
NEWPORT        PTSUNNY   59  48  67 S5        30.34S
PORTLAND       FOG       50  50 100 N3        30.36F VSB 1/4
VANCOUVER WA   CLOUDY    51  48  89 W7        30.35F
SCAPPOOSE      PTSUNNY   54  49  83 N3        30.35F
HILLSBORO      CLOUDY    52  50  93 CALM      30.34F
AURORA         PTSUNNY   55  51  86 CALM      30.34F
MCMINNVILLE    CLOUDY    52  49  89 NW5       30.35F
SALEM          CLOUDY    51  49  92 N5        30.33F FOG
CORVALLIS      CLOUDY    50  48  93 CALM      30.34F
EUGENE         PTSUNNY   56  46  69 CALM      30.32F
$$

ORZ021-028-282100-
SOUTHWEST OREGON


CITY           SKY/WX    TMP DP  RH WIND       PRES   REMARKS
NORTH BEND     SUNNY     61  52  72 CALM      30.31F
BROOKINGS      MOSUNNY   60  49  67 CALM      30.30F
ROSEBURG       CLOUDY    49  44  83 CALM      30.33F
SEXTON SUMMIT  MOSUNNY   51  34  52 SE7       30.29F
MEDFORD        CLOUDY    41  40  96 CALM      30.33F FOG
$$

ORZ014>016-041-282100-
COLUMBIA GORGE


CITY           SKY/WX    TMP DP  RH WIND       PRES   REMARKS
TROUTDALE      PTSUNNY   52  49  89 E3        30.34F
THE DALLES     SUNNY     48  41  76 E8        30.38F
$$

ORZ029>031-041-044-049-050-061>064-502-503-505>511-282100-
EASTERN OREGON


CITY           SKY/WX    TMP DP  RH WIND       PRES   REMARKS
REDMOND        SUNNY     51  35  54 SE6       30.32F
BEND           SUNNY     50  34  53 CALM      30.34F
PRINEVILLE     SUNNY     52  37  58 CALM      30.33F
KLAMATH FALLS  SUNNY     48  35  60 CALM      30.33F
LAKEVIEW       SUNNY     48  34  57 CALM      30.35F
HERMISTON      CLOUDY    39  38  96 NE12      30.41F FOG     WCI  32
PENDLETON      SUNNY     52  43  71 N3        30.36F
JOHN DAY       SUNNY     50  35  55 NE3       30.34F
MEACHAM        CLOUDY    47  33  58 VRB3      30.34F
LA GRANDE      PTSUNNY   52  32  46 CALM      30.34F
BAKER CITY     SUNNY     46  34  62 W5        30.36F
BURNS          MOSUNNY   44  36  73 SW3       30.35F
ROME             N/A     48  35  60 NE10      30.33F
ONTARIO        PTSUNNY   38  36  92 CALM      30.39F FOG
$$


USA.gov is the U.S. government's official web portal to all federal, state and local government web resources and services.